Tracking 18856 objects as of 12-Dec-2017
HD Live streaming from Space Station
objects crossing your sky now

USA 158

Track USA 158 now!
USA 158 is classified as:


NORAD ID: 26770
Int'l Code: 2001-020A
Perigee: 36,137.9 km
Apogee: 36,262.6 km
Inclination: 6.5 °
Period: 1,456.9 minutes
Semi major axis: 42571 km
RCS: Unknown
Launch date: May 18, 2001
Source: United States (US)
Launch site: AIR FORCE EASTERN TEST RANGE (AFETR)

Advanced technology demonstration satellite with laser communications experiment and operational UHF communications mission.
aabbcc
Your satellite tracking list
Your tracking list is empty




NASA's NSSDC Master Catalog

Two Line Element Set (TLE):
1 26770U 01020A   17262.29613871 0.00000000  00000-0  00000-0 0    03
2 26770   6.4523  46.7294 0014640  41.5290 318.5647  0.98839044    01
Source of the keplerian elements: McCants